Location: Drummondville
(45.8830°N, 72.4830°W)
Time: 04:34:40
(UTC-05:00)

ISS - Pass Details

Date: 16 November 2017
Orbit: 401 x 407 km, 51.6° (Epoch: 25 November)

Event Time Altitude Azimuth Distance (km) Brightness Sun altitude
Exits shadow 04:16:28 21° 108° (ESE) 956 -1.3 -26.9°
Drops below altitude 10° 04:17:42 10° 111° (ESE) 1,450 -0.2 -26.7°
Sets 04:19:47 0° 114° (ESE) 2,307 1.1 -26.3°
